• In Latvia
  • List of Countries
  • For 7 days
  • Water Temperature
  • Satellite Maps
  • Weather Map
  • Weather Widgets
  • user-avatar
    Login

    Hourly Weather Eisenstadt

    Today, 23 January, Tuesday

    Time Temperature Precipitation Wind Pressure Humidity
    00:00 +1°C° 0.1 mm 1 mps 720 mmHg 81%
    01:00 +1°C° 0 mm 1 mps 720 mmHg 82%
    02:00 +1°C° 0 mm 1 mps 721 mmHg 83%
    03:00 +1°C° 0 mm 1 mps 721 mmHg 84%
    04:00 -1°C° 0 mm 2 mps 722 mmHg 85%
    05:00 -1°C° 0 mm 2 mps 722 mmHg 86%
    06:00 -1°C° 0 mm 2 mps 723 mmHg 88%
    07:00 0°C° 0 mm 1 mps 724 mmHg 89%
    08:00 -1°C° 0.1 mm 2 mps 725 mmHg 86%
    09:00 +1°C° 0.1 mm 2 mps 725 mmHg 83%
    10:00 +2°C° 0.1 mm 2 mps 726 mmHg 81%
    11:00 +3°C° 0.1 mm 2 mps 727 mmHg 79%
    12:00 +3°C° 0.1 mm 2 mps 727 mmHg 77%
    13:00 +4°C° 0 mm 2 mps 728 mmHg 77%
    14:00 +3°C° 0 mm 2 mps 728 mmHg 79%
    15:00 +3°C° 0 mm 2 mps 728 mmHg 82%
    16:00 +3°C° 0 mm 1 mps 729 mmHg 85%
    17:00 +3°C° 0 mm 1 mps 729 mmHg 86%
    18:00 +2°C° 0 mm 1 mps 729 mmHg 88%
    19:00 +2°C° 0 mm 1 mps 730 mmHg 89%
    20:00 +2°C° 0 mm 1 mps 730 mmHg 89%
    21:00 +1°C° 0 mm 1 mps 730 mmHg 89%
    22:00 +1°C° 0 mm 1 mps 730 mmHg 89%
    23:00 +1°C° 0 mm 1 mps 731 mmHg 88%

    Tomorrow, 24 January, Wednesday

    Time Temperature Precipitation Wind Pressure Humidity
    00:00 +1°C° 0 mm 1 mps 731 mmHg 88%
    01:00 +1°C° 0 mm 1 mps 731 mmHg 88%
    02:00 +1°C° 0 mm 1 mps 731 mmHg 88%
    03:00 0°C° 0 mm 1 mps 731 mmHg 88%
    04:00 0°C° 0 mm 1 mps 730 mmHg 88%
    05:00 -2°C° 0 mm 2 mps 731 mmHg 87%
    06:00 -2°C° 0 mm 2 mps 731 mmHg 87%
    07:00 -2°C° 0 mm 2 mps 731 mmHg 87%
    08:00 +1°C° 0 mm 2 mps 731 mmHg 83%
    09:00 +2°C° 0 mm 2 mps 731 mmHg 79%
    10:00 +3°C° 0 mm 2 mps 731 mmHg 75%
    11:00 +4°C° 0 mm 2 mps 731 mmHg 73%
    12:00 +4°C° 0 mm 3 mps 731 mmHg 71%
    13:00 +5°C° 0 mm 3 mps 731 mmHg 69%
    14:00 +4°C° 0 mm 3 mps 730 mmHg 73%
    15:00 +4°C° 0 mm 3 mps 730 mmHg 76%
    16:00 +3°C° 0 mm 3 mps 730 mmHg 80%
    17:00 +2°C° 0 mm 3 mps 730 mmHg 82%
    18:00 +2°C° 0 mm 3 mps 730 mmHg 84%
    19:00 +1°C° 0 mm 3 mps 729 mmHg 86%
    20:00 +1°C° 0 mm 3 mps 729 mmHg 86%
    21:00 0°C° 0 mm 3 mps 729 mmHg 86%
    22:00 0°C° 0 mm 3 mps 729 mmHg 86%
    23:00 0°C° 0 mm 3 mps 728 mmHg 87%

    Day after tomorrow, 25 January, Thursday

    Time Temperature Precipitation Wind Pressure Humidity
    00:00 0°C° 0 mm 3 mps 728 mmHg 87%
    01:00 0°C° 0 mm 3 mps 728 mmHg 88%
    02:00 -1°C° 0 mm 3 mps 728 mmHg 88%
    03:00 -1°C° 0 mm 3 mps 727 mmHg 89%
    04:00 -1°C° 0 mm 3 mps 727 mmHg 89%
    05:00 -1°C° 0 mm 2 mps 727 mmHg 89%
    06:00 -1°C° 0 mm 2 mps 727 mmHg 89%
    07:00 -2°C° 0 mm 2 mps 727 mmHg 90%
    08:00 -1°C° 0 mm 2 mps 727 mmHg 87%
    09:00 +1°C° 0 mm 2 mps 726 mmHg 84%
    10:00 +2°C° 0 mm 2 mps 726 mmHg 81%
    11:00 +3°C° 0 mm 2 mps 726 mmHg 80%
    12:00 +3°C° 0 mm 3 mps 725 mmHg 78%
    13:00 +4°C° 0 mm 3 mps 725 mmHg 77%
    14:00 +3°C° 0 mm 3 mps 724 mmHg 80%
    15:00 +4°C° 0 mm 2 mps 724 mmHg 82%
    16:00 +4°C° 0 mm 2 mps 723 mmHg 85%
    17:00 +4°C° 0 mm 2 mps 723 mmHg 86%
    18:00 +2°C° 0 mm 3 mps 723 mmHg 88%
    19:00 +2°C° 0 mm 3 mps 723 mmHg 89%
    20:00 +2°C° 0 mm 3 mps 722 mmHg 89%
    21:00 +2°C° 0 mm 3 mps 722 mmHg 90%
    22:00 +2°C° 0 mm 3 mps 722 mmHg 90%
    23:00 +1°C° 0 mm 3 mps 722 mmHg 90%

    26 January, Friday

    Time Temperature Precipitation Wind Pressure Humidity
    00:00 +1°C° 0 mm 3 mps 721 mmHg 90%
    01:00 +1°C° 0 mm 3 mps 721 mmHg 90%
    02:00 +1°C° 0 mm 3 mps 721 mmHg 90%
    03:00 +1°C° 0 mm 3 mps 721 mmHg 90%
    04:00 +2°C° 0 mm 2 mps 720 mmHg 90%
    05:00 +2°C° 0 mm 2 mps 720 mmHg 90%
    06:00 +2°C° 0 mm 2 mps 720 mmHg 90%
    07:00 +2°C° 0 mm 2 mps 720 mmHg 90%
    08:00 +3°C° 0 mm 2 mps 721 mmHg 86%
    09:00 +3°C° 0 mm 3 mps 721 mmHg 83%
    10:00 +5°C° 0 mm 3 mps 721 mmHg 80%
    11:00 +7°C° 0 mm 3 mps 721 mmHg 77%
    12:00 +8°C° 0 mm 3 mps 721 mmHg 75%
    13:00 +9°C° 0 mm 3 mps 722 mmHg 72%
    14:00 +8°C° 0 mm 3 mps 722 mmHg 75%
    15:00 +7°C° 0 mm 2 mps 722 mmHg 79%
    16:00 +7°C° 0 mm 1 mps 722 mmHg 82%
    17:00 +6°C° 0 mm 1 mps 722 mmHg 85%
    18:00 +5°C° 0 mm 1 mps 722 mmHg 88%
    19:00 +4°C° 0 mm 1 mps 723 mmHg 91%
    20:00 +4°C° 0 mm 1 mps 723 mmHg 92%
    21:00 +3°C° 0 mm 1 mps 723 mmHg 92%
    22:00 +3°C° 0 mm 1 mps 724 mmHg 93%
    23:00 +3°C° 0 mm 1 mps 724 mmHg 94%

    27 January, Saturday

    Time Temperature Precipitation Wind Pressure Humidity
    00:00 +2°C° 0 mm 1 mps 724 mmHg 94%
    01:00 +2°C° 0 mm 1 mps 724 mmHg 95%
    02:00 +2°C° 0 mm 1 mps 724 mmHg 95%
    03:00 +2°C° 0 mm 1 mps 725 mmHg 95%
    04:00 +2°C° 0 mm 1 mps 725 mmHg 95%
    05:00 +2°C° 0 mm 1 mps 725 mmHg 95%
    06:00 +2°C° 0 mm 1 mps 726 mmHg 94%
    07:00 +1°C° 0 mm 2 mps 726 mmHg 94%
    08:00 +2°C° 0 mm 2 mps 727 mmHg 92%
    09:00 +2°C° 0 mm 2 mps 728 mmHg 90%
    10:00 +3°C° 0 mm 2 mps 728 mmHg 88%
    11:00 +4°C° 0 mm 2 mps 729 mmHg 84%
    12:00 +5°C° 0 mm 2 mps 729 mmHg 81%
    13:00 +5°C° 0 mm 2 mps 730 mmHg 78%
    14:00 +6°C° 0 mm 1 mps 730 mmHg 80%
    15:00 +6°C° 0 mm 1 mps 730 mmHg 82%
    16:00 +5°C° 0 mm 1 mps 730 mmHg 84%
    17:00 +5°C° 0 mm 1 mps 731 mmHg 87%
    18:00 +4°C° 0 mm 1 mps 731 mmHg 89%
    19:00 +3°C° 0 mm 1 mps 732 mmHg 91%
    20:00 +3°C° 0 mm 1 mps 732 mmHg 92%
    21:00 +3°C° 0 mm 1 mps 732 mmHg 93%
    22:00 +3°C° 0 mm 1 mps 733 mmHg 93%
    23:00 +2°C° 0 mm 1 mps 733 mmHg 93%

    28 January, Sunday

    Time Temperature Precipitation Wind Pressure Humidity
    00:00 +2°C° 0 mm 1 mps 733 mmHg 93%
    01:00 +2°C° 0 mm 1 mps 733 mmHg 93%
    02:00 +2°C° 0 mm 1 mps 733 mmHg 93%
    03:00 +2°C° 0 mm 1 mps 733 mmHg 93%
    04:00 +1°C° 0 mm 1 mps 733 mmHg 93%
    05:00 +1°C° 0 mm 1 mps 733 mmHg 92%
    06:00 +1°C° 0 mm 1 mps 733 mmHg 92%
    07:00 +1°C° 0 mm 1 mps 734 mmHg 92%
    08:00 +2°C° 0 mm 1 mps 734 mmHg 88%
    09:00 +4°C° 0 mm 1 mps 734 mmHg 84%
    10:00 +5°C° 0 mm 1 mps 735 mmHg 81%
    11:00 +6°C° 0 mm 1 mps 735 mmHg 77%
    12:00 +7°C° 0 mm 1 mps 734 mmHg 74%
    13:00 +8°C° 0 mm 1 mps 734 mmHg 71%
    14:00 +8°C° 0 mm 1 mps 734 mmHg 74%
    15:00 +7°C° 0 mm 1 mps 734 mmHg 77%
    16:00 +7°C° 0 mm 1 mps 734 mmHg 80%
    17:00 +6°C° 0 mm 1 mps 734 mmHg 82%
    18:00 +5°C° 0 mm 1 mps 734 mmHg 84%
    19:00 +3°C° 0 mm 2 mps 734 mmHg 86%
    20:00 +3°C° 0 mm 2 mps 734 mmHg 84%
    21:00 +3°C° 0 mm 2 mps 735 mmHg 82%
    22:00 +3°C° 0 mm 2 mps 735 mmHg 80%
    23:00 +4°C° 0 mm 2 mps 735 mmHg 78%
    Show more